Location: Bosmont
(49.7318°N, 3.8587°E)
Time: 19:41:56
(UTC+00:00)

Lacrosse 4 Rocket - Pass Details

Date: 08 February 2023
Orbit: 536 x 608 km, 68.0° (Epoch: 25 March)

Event Time Altitude Azimuth Distance (km) Brightness Sun altitude
Rises 19:24:18 0° 329° (NNW) 2,845 5.5 -25.1°
Reaches altitude 10° 19:26:41 10° 336° (NNW) 1,928 4.4 -25.5°
Enters shadow 19:28:53 26° 354° (N) 1,163 3.0 -25.8°
